カタログに戻る

THOR ABLESTAR DEB

運用中LEO
NORAD 125·DEBRIS·🇺🇸 United States

打ち上げ Jun 29, 1961 から Cape Canaveral Space Force Station

Loading…

次のパス (今後24時間)

TLE

最新Source: Space-Track

元期: Sep 13, 2026, 21:11 UTC

1   125U 61015K   26256.88300824  .00000235  00000-0  18113-3 0  9992
2   125  66.8746  67.1797 0072717 354.2998   5.7254 14.07760095329745

AllMySatでTHOR ABLESTAR DEBをリアルタイム追跡

Download on the App Store